Weather History for Monett, MO

Change the Weather History Date:

Wednesday, January 23, 2013

  Actual Average (KJLN) Record (KJLN)
Temperature  
Mean Temperature 42 °F 35 °F  
Max Temperature 57 °F 45 °F 72 °F (1967)
Min Temperature 26 °F 25 °F -7 °F (1963)
Degree Days  
Heating Degree Days 24 30  
Month to date heating degree days 690  
Since 1 July heating degree days 2307  
Cooling Degree Days 0 0  
Month to date cooling degree days 0  
Year to date cooling degree days 0  
Moisture  
Dew Point 30 °F    
Average Humidity 69    
Maximum Humidity 86    
Minimum Humidity 51    
Precipitation  
Precipitation 0.00 in 0.07 in 1.34 in (1949)
Month to date precipitation 1.52  
Year to date precipitation 1.52  
Sea Level Pressure  
Sea Level Pressure 30.20 in    
Wind  
Wind Speed 7 mph (South)    
Max Wind Speed 14 mph    
Max Gust Speed 17 mph    
Visibility 10 miles    
Events      
T = Trace of Precipitation, MM = Missing Value Source: NWS Daily Summary

Daily Weather History Graph

Daily Weather History Graph

Search for Another Location

Airport:

Trip Planner

Search our weather history database for the weather conditions in past years. The results will help you decide how hot, cold, wet, or windy it might be!

Date:

Astronomy

Jan. 23, 2013 Rise Set
Actual Time 7:24 AM CST 5:31 PM CST
Civil Twilight 6:56 AM CST 5:59 PM CST
Nautical Twilight 6:25 AM CST 6:31 PM CST
Astronomical Twilight 5:54 AM CST 7:02 PM CST
Moon 2:44 PM CST 4:35 AM CST
Length of Visible Light 11h 03m
Length of Day
10h 07m
Waxing Gibbous, 89% of the Moon is Illuminated
Jan 23
Waxing Gibbous
Jan 26
Full
Feb 3
Last Quarter
Feb 10
New
Feb 17
First Quarter

Hourly Weather History & Observations

Time (CST) Temp. Windchill Dew Point Humidity Pressure Visibility Wind Dir Wind Speed Gust Speed Precip Events Conditions
12:15 AM 26.6 °F 19.1 °F 19.4 °F 74% 30.24 in 10.0 mi ESE 6.9 mph - N/A   Clear
12:35 AM 26.6 °F 18.2 °F 19.4 °F 74% 30.23 in 10.0 mi ESE 8.1 mph - N/A   Clear
12:55 AM 26.6 °F 19.1 °F 19.4 °F 74% 30.23 in 10.0 mi ESE 6.9 mph - N/A   Clear
1:15 AM 26.6 °F 19.1 °F 19.4 °F 74% 30.22 in 10.0 mi ESE 6.9 mph - N/A   Clear
1:35 AM 26.6 °F 19.1 °F 19.4 °F 74% 30.22 in 10.0 mi SE 6.9 mph - N/A   Clear
1:55 AM 26.6 °F 19.1 °F 19.4 °F 74% 30.22 in 10.0 mi SE 6.9 mph - N/A   Clear
2:15 AM 26.6 °F 19.1 °F 19.4 °F 74% 30.22 in 10.0 mi ESE 6.9 mph - N/A   Clear
2:35 AM 26.6 °F 20.0 °F 19.4 °F 74% 30.22 in 10.0 mi SE 5.8 mph - N/A   Clear
2:55 AM 26.6 °F 20.0 °F 19.4 °F 74% 30.22 in 10.0 mi SE 5.8 mph - N/A   Clear
3:15 AM 26.6 °F 19.1 °F 19.4 °F 74% 30.21 in 10.0 mi SE 6.9 mph - N/A   Clear
3:35 AM 26.6 °F 21.2 °F 21.2 °F 80% 30.21 in 10.0 mi SE 4.6 mph - N/A   Clear
3:55 AM 28.4 °F 22.2 °F 21.2 °F 74% 30.20 in 10.0 mi SSE 5.8 mph - N/A   Clear
4:15 AM 28.4 °F 22.2 °F 21.2 °F 74% 30.20 in 10.0 mi SSE 5.8 mph - N/A   Clear
4:35 AM 28.4 °F 22.2 °F 23.0 °F 80% 30.20 in 10.0 mi SE 5.8 mph - N/A   Clear
4:55 AM 30.2 °F 24.3 °F 23.0 °F 75% 30.20 in 10.0 mi SE 5.8 mph - N/A   Clear
5:15 AM 28.4 °F 22.2 °F 23.0 °F 80% 30.19 in 10.0 mi SE 5.8 mph - N/A   Clear
5:35 AM 30.2 °F 25.4 °F 23.0 °F 75% 30.19 in 10.0 mi SE 4.6 mph - N/A   Clear
5:55 AM 28.4 °F 23.3 °F 23.0 °F 80% 30.20 in 10.0 mi SE 4.6 mph - N/A   Clear
6:15 AM 28.4 °F 23.3 °F 23.0 °F 80% 30.21 in 10.0 mi SE 4.6 mph - N/A   Clear
6:35 AM 26.6 °F 20.0 °F 21.2 °F 80% 30.21 in 10.0 mi SE 5.8 mph - N/A   Clear
6:55 AM 28.4 °F 23.3 °F 23.0 °F 80% 30.21 in 10.0 mi ESE 4.6 mph - N/A   Clear
7:15 AM 26.6 °F 20.0 °F 23.0 °F 86% 30.21 in 10.0 mi SE 5.8 mph - N/A   Clear
7:55 AM 28.4 °F 24.6 °F 24.8 °F 86% 30.22 in 10.0 mi SE 3.5 mph - N/A   Clear
8:15 AM 30.2 °F 26.7 °F 26.6 °F 86% 30.22 in 10.0 mi SE 3.5 mph - N/A   Clear
8:35 AM 32.0 °F 27.5 °F 26.6 °F 80% 30.21 in 10.0 mi SSE 4.6 mph - N/A   Clear
9:15 AM 37.4 °F 32.8 °F 32.0 °F 81% 30.22 in 10.0 mi South 5.8 mph - N/A   Clear
9:35 AM 41.0 °F 35.8 °F 32.0 °F 70% 30.22 in 10.0 mi SSW 8.1 mph - N/A   Clear
9:55 AM 42.8 °F 38.0 °F 33.8 °F 70% 30.22 in 10.0 mi SW 8.1 mph - N/A   Clear
10:15 AM 44.6 °F 40.2 °F 35.6 °F 71% 30.23 in 10.0 mi SW 8.1 mph - N/A   Clear
10:35 AM 46.4 °F 41.1 °F 35.6 °F 66% 30.22 in 10.0 mi SW 11.5 mph - N/A   Clear
10:55 AM 46.4 °F 41.1 °F 35.6 °F 66% 30.21 in 10.0 mi WSW 11.5 mph 17.3 mph N/A   Clear
11:15 AM 48.2 °F - 35.6 °F 62% 30.21 in 10.0 mi WSW 13.8 mph - N/A   Clear
11:35 AM 50.0 °F - 35.6 °F 58% 30.20 in 10.0 mi WSW 6.9 mph - N/A   Clear
11:55 AM 50.0 °F - 37.4 °F 62% 30.19 in 10.0 mi WSW 9.2 mph - N/A   Clear
12:15 PM 50.0 °F - 37.4 °F 62% 30.18 in 10.0 mi WSW 9.2 mph - N/A   Clear
12:35 PM 51.8 °F - 37.4 °F 58% 30.16 in 10.0 mi SW 10.4 mph - N/A   Clear
12:55 PM 51.8 °F - 39.2 °F 62% 30.15 in 10.0 mi SW 5.8 mph - N/A   Clear
1:15 PM 51.8 °F - 37.4 °F 58% 30.15 in 10.0 mi SW 5.8 mph - N/A   Clear
1:35 PM 53.6 °F - 39.2 °F 58% 30.15 in 10.0 mi West 5.8 mph - N/A   Clear
1:55 PM 53.6 °F - 39.2 °F 58% 30.14 in 10.0 mi WSW 8.1 mph - N/A   Clear
2:15 PM 55.4 °F - 41.0 °F 58% 30.14 in 10.0 mi WSW 5.8 mph - N/A   Clear
2:35 PM 55.4 °F - 39.2 °F 54% 30.14 in 10.0 mi WSW 10.4 mph - N/A   Clear
2:55 PM 57.2 °F - 39.2 °F 51% 30.14 in 10.0 mi West 8.1 mph - N/A   Clear
3:15 PM 57.2 °F - 39.2 °F 51% 30.14 in 10.0 mi West 8.1 mph - N/A   Clear
3:35 PM 55.4 °F - 39.2 °F 54% 30.14 in 10.0 mi WSW 8.1 mph - N/A   Clear
3:55 PM 55.4 °F - 39.2 °F 54% 30.14 in 10.0 mi WSW 6.9 mph - N/A   Clear
4:15 PM 55.4 °F - 39.2 °F 54% 30.13 in 10.0 mi West 5.8 mph - N/A   Clear
4:35 PM 55.4 °F - 39.2 °F 54% 30.13 in 10.0 mi West 5.8 mph - N/A   Clear
4:55 PM 53.6 °F - 37.4 °F 54% 30.14 in 10.0 mi West 4.6 mph - N/A   Clear
5:15 PM 51.8 °F - 37.4 °F 58% 30.15 in 10.0 mi West 5.8 mph - N/A   Clear
5:35 PM 51.8 °F - 37.4 °F 58% 30.15 in 10.0 mi West 4.6 mph - N/A   Clear
5:55 PM 50.0 °F - 37.4 °F 62% 30.14 in 10.0 mi NW 3.5 mph - N/A   Clear
6:15 PM 48.2 °F - 37.4 °F 66% 30.15 in 10.0 mi NW 4.6 mph - N/A   Clear
6:35 PM 46.4 °F 43.5 °F 37.4 °F 71% 30.15 in 10.0 mi NNW 5.8 mph - N/A   Clear
6:55 PM 46.4 °F 42.9 °F 37.4 °F 71% 30.17 in 10.0 mi NNW 6.9 mph - N/A   Clear
7:15 PM 42.8 °F 38.6 °F 35.6 °F 76% 30.18 in 10.0 mi NNE 6.9 mph - N/A   Clear
7:55 PM 42.8 °F 38.0 °F 35.6 °F 76% 30.20 in 10.0 mi NNE 8.1 mph - N/A   Clear
8:35 PM 41.0 °F 35.8 °F 33.8 °F 76% 30.21 in 10.0 mi NNE 8.1 mph - N/A   Clear
8:55 PM 41.0 °F 36.4 °F 32.0 °F 70% 30.22 in 10.0 mi NE 6.9 mph - N/A   Clear
9:15 PM 41.0 °F 35.2 °F 32.0 °F 70% 30.23 in 10.0 mi NNE 9.2 mph - N/A   Clear
9:35 PM 39.2 °F 33.6 °F 30.2 °F 70% 30.23 in 10.0 mi NE 8.1 mph 16.1 mph N/A   Clear
9:55 PM 37.4 °F 30.3 °F 30.2 °F 75% 30.23 in 10.0 mi NE 10.4 mph - N/A   Clear
10:15 PM 37.4 °F 32.1 °F 28.4 °F 70% 30.25 in 10.0 mi NE 6.9 mph - N/A   Clear
10:35 PM 37.4 °F 31.4 °F 28.4 °F 70% 30.25 in 10.0 mi NE 8.1 mph - N/A   Clear
10:55 PM 35.6 °F 29.9 °F 28.4 °F 75% 30.26 in 10.0 mi NE 6.9 mph - N/A   Clear
11:15 PM 35.6 °F 29.2 °F 28.4 °F 75% 30.25 in 10.0 mi NE 8.1 mph - N/A   Mostly Cloudy
11:35 PM 35.6 °F 28.0 °F 26.6 °F 70% 30.27 in 10.0 mi NNE 10.4 mph - N/A   Mostly Cloudy
11:55 PM 35.6 °F 28.6 °F 26.6 °F 70% 30.27 in 10.0 mi NE 9.2 mph - N/A   Mostly Cloudy